When you browse on this site, cookies collect data to enhance your experience and personalize the content and advertising you see.
Visit our Privacy Policy to learn more. By continuing to use the site, you agree to this use of cookies and data.
  • In Lithuania
  • List of Countries
  • For 7 days
  • Water Temperature
  • Satellite Maps
  • Weather Map
  • Weather Widgets
  • user-avatar
    Login

    Hourly Weather Kamloops

    Today, 21 May, Tuesday

    Time Temperature Precipitation Wind Pressure Humidity
    00:00 +10°C° 0 mm 1 mps 698 mmHg 59%
    01:00 +9°C° 0 mm 1 mps 698 mmHg 61%
    02:00 +8°C° 0 mm 1 mps 698 mmHg 64%
    03:00 +7°C° 0 mm 0 mps 698 mmHg 66%
    04:00 +6°C° 0 mm 0 mps 698 mmHg 68%
    05:00 +8°C° 0 mm 0 mps 698 mmHg 61%
    06:00 +10°C° 0 mm 0 mps 698 mmHg 54%
    07:00 +13°C° 0 mm 0 mps 698 mmHg 47%
    08:00 +16°C° 0 mm 1 mps 698 mmHg 42%
    09:00 +19°C° 0 mm 1 mps 698 mmHg 36%
    10:00 +21°C° 0 mm 1 mps 698 mmHg 31%
    11:00 +22°C° 0 mm 1 mps 698 mmHg 29%
    12:00 +23°C° 0 mm 1 mps 699 mmHg 28%
    13:00 +24°C° 0 mm 1 mps 699 mmHg 26%
    14:00 +24°C° 0 mm 1 mps 699 mmHg 26%
    15:00 +23°C° 0 mm 1 mps 699 mmHg 27%
    16:00 +23°C° 0 mm 1 mps 699 mmHg 27%
    17:00 +22°C° 0 mm 1 mps 699 mmHg 32%
    18:00 +20°C° 0 mm 1 mps 699 mmHg 37%
    19:00 +19°C° 0 mm 1 mps 699 mmHg 43%
    20:00 +16°C° 0 mm 1 mps 700 mmHg 46%
    21:00 +15°C° 0 mm 1 mps 700 mmHg 49%
    22:00 +13°C° 0 mm 1 mps 701 mmHg 51%
    23:00 +13°C° 0 mm 1 mps 701 mmHg 56%

    Tomorrow, 22 May, Wednesday

    Time Temperature Precipitation Wind Pressure Humidity
    00:00 +12°C° 0 mm 1 mps 701 mmHg 60%
    01:00 +11°C° 0 mm 1 mps 702 mmHg 65%
    02:00 +11°C° 0 mm 1 mps 702 mmHg 68%
    03:00 +10°C° 0 mm 1 mps 703 mmHg 71%
    04:00 +10°C° 0 mm 1 mps 703 mmHg 74%
    05:00 +12°C° 0 mm 1 mps 703 mmHg 68%
    06:00 +14°C° 0 mm 1 mps 704 mmHg 62%
    07:00 +16°C° 0 mm 1 mps 704 mmHg 55%
    08:00 +19°C° 0 mm 1 mps 704 mmHg 49%
    09:00 +21°C° 0 mm 1 mps 704 mmHg 43%
    10:00 +24°C° 0 mm 1 mps 705 mmHg 37%
    11:00 +24°C° 0.1 mm 1 mps 705 mmHg 35%
    12:00 +25°C° 0.1 mm 1 mps 705 mmHg 33%
    13:00 +26°C° 0.1 mm 1 mps 705 mmHg 31%
    14:00 +25°C° 0 mm 1 mps 705 mmHg 32%
    15:00 +25°C° 0 mm 1 mps 705 mmHg 33%
    16:00 +24°C° 0 mm 1 mps 705 mmHg 35%
    17:00 +22°C° 0 mm 1 mps 704 mmHg 41%
    18:00 +21°C° 0 mm 1 mps 704 mmHg 47%
    19:00 +19°C° 0 mm 1 mps 704 mmHg 53%
    20:00 +16°C° 0.1 mm 0 mps 705 mmHg 58%
    21:00 +15°C° 0.1 mm 0 mps 705 mmHg 63%
    22:00 +13°C° 0.1 mm 0 mps 705 mmHg 68%
    23:00 +13°C° 0 mm 0 mps 705 mmHg 69%

    Day after tomorrow, 23 May, Thursday

    Time Temperature Precipitation Wind Pressure Humidity
    00:00 +13°C° 0 mm 1 mps 705 mmHg 71%
    01:00 +13°C° 0 mm 1 mps 706 mmHg 72%
    02:00 +12°C° 0 mm 1 mps 706 mmHg 74%
    03:00 +12°C° 0 mm 1 mps 706 mmHg 76%
    04:00 +11°C° 0 mm 1 mps 705 mmHg 78%
    05:00 +13°C° 0 mm 1 mps 706 mmHg 70%
    06:00 +15°C° 0 mm 1 mps 706 mmHg 63%
    07:00 +18°C° 0 mm 1 mps 706 mmHg 55%
    08:00 +20°C° 0 mm 1 mps 706 mmHg 48%
    09:00 +21°C° 0 mm 2 mps 705 mmHg 41%
    10:00 +23°C° 0 mm 2 mps 705 mmHg 35%
    11:00 +24°C° 0 mm 2 mps 705 mmHg 33%
    12:00 +25°C° 0 mm 2 mps 704 mmHg 31%
    13:00 +25°C° 0 mm 2 mps 704 mmHg 29%
    14:00 +25°C° 0 mm 2 mps 703 mmHg 29%
    15:00 +25°C° 0 mm 2 mps 702 mmHg 28%
    16:00 +25°C° 0 mm 2 mps 702 mmHg 28%
    17:00 +24°C° 0 mm 2 mps 701 mmHg 33%
    18:00 +22°C° 0 mm 1 mps 701 mmHg 39%
    19:00 +19°C° 0 mm 0 mps 700 mmHg 44%
    20:00 +19°C° 0.1 mm 1 mps 700 mmHg 49%
    21:00 +16°C° 0.1 mm 1 mps 700 mmHg 53%
    22:00 +15°C° 0.1 mm 1 mps 700 mmHg 57%
    23:00 +14°C° 0 mm 1 mps 700 mmHg 61%

    24 May, Friday

    Time Temperature Precipitation Wind Pressure Humidity
    00:00 +14°C° 0 mm 1 mps 699 mmHg 64%
    01:00 +13°C° 0 mm 1 mps 699 mmHg 67%
    02:00 +13°C° 0 mm 1 mps 699 mmHg 71%
    03:00 +12°C° 0 mm 1 mps 699 mmHg 75%
    04:00 +12°C° 0 mm 1 mps 699 mmHg 79%
    05:00 +13°C° 0 mm 1 mps 699 mmHg 74%
    06:00 +15°C° 0 mm 1 mps 699 mmHg 70%
    07:00 +16°C° 0 mm 1 mps 699 mmHg 65%
    08:00 +18°C° 0.1 mm 2 mps 699 mmHg 59%
    09:00 +20°C° 0.1 mm 2 mps 699 mmHg 52%
    10:00 +21°C° 0.1 mm 2 mps 699 mmHg 46%
    11:00 +23°C° 0.1 mm 2 mps 699 mmHg 41%
    12:00 +25°C° 0.1 mm 2 mps 699 mmHg 37%
    13:00 +26°C° 0.1 mm 2 mps 699 mmHg 32%
    14:00 +25°C° 0.1 mm 2 mps 699 mmHg 34%
    15:00 +25°C° 0.1 mm 2 mps 699 mmHg 36%
    16:00 +24°C° 0.1 mm 3 mps 699 mmHg 37%
    17:00 +23°C° 0.1 mm 2 mps 699 mmHg 44%
    18:00 +21°C° 0.1 mm 1 mps 699 mmHg 50%
    19:00 +20°C° 0.1 mm 1 mps 699 mmHg 56%
    20:00 +18°C° 0.5 mm 1 mps 700 mmHg 64%
    21:00 +16°C° 0.5 mm 1 mps 700 mmHg 72%
    22:00 +14°C° 0.5 mm 1 mps 701 mmHg 79%
    23:00 +13°C° 0.1 mm 1 mps 701 mmHg 81%

    25 May, Saturday

    Time Temperature Precipitation Wind Pressure Humidity
    00:00 +13°C° 0.1 mm 1 mps 701 mmHg 82%
    01:00 +13°C° 0.1 mm 1 mps 702 mmHg 83%
    02:00 +12°C° 0.1 mm 1 mps 702 mmHg 84%
    03:00 +12°C° 0.1 mm 1 mps 703 mmHg 84%
    04:00 +12°C° 0.1 mm 1 mps 703 mmHg 84%
    05:00 +13°C° 0 mm 1 mps 704 mmHg 79%
    06:00 +14°C° 0 mm 1 mps 704 mmHg 74%
    07:00 +16°C° 0 mm 1 mps 705 mmHg 69%
    08:00 +18°C° 0 mm 1 mps 705 mmHg 61%
    09:00 +20°C° 0 mm 1 mps 706 mmHg 53%
    10:00 +21°C° 0 mm 2 mps 706 mmHg 45%
    11:00 +23°C° 0.2 mm 2 mps 706 mmHg 43%
    12:00 +24°C° 0.2 mm 2 mps 706 mmHg 41%
    13:00 +24°C° 0.2 mm 2 mps 706 mmHg 39%
    14:00 +24°C° 0.1 mm 2 mps 706 mmHg 38%
    15:00 +24°C° 0.1 mm 2 mps 705 mmHg 38%
    16:00 +24°C° 0.1 mm 2 mps 705 mmHg 37%
    17:00 +23°C° 0 mm 2 mps 705 mmHg 43%
    18:00 +22°C° 0 mm 1 mps 705 mmHg 49%
    19:00 +20°C° 0 mm 1 mps 705 mmHg 54%
    20:00 +18°C° 0 mm 1 mps 705 mmHg 60%
    21:00 +14°C° 0 mm 0 mps 705 mmHg 66%
    22:00 +13°C° 0 mm 0 mps 706 mmHg 72%
    23:00 +12°C° 0 mm 0 mps 706 mmHg 73%

    26 May, Sunday

    Time Temperature Precipitation Wind Pressure Humidity
    00:00 +12°C° 0 mm 0 mps 706 mmHg 75%
    01:00 +11°C° 0 mm 0 mps 706 mmHg 77%
    02:00 +11°C° 0 mm 0 mps 706 mmHg 78%
    03:00 +10°C° 0 mm 0 mps 706 mmHg 80%
    04:00 +10°C° 0 mm 0 mps 706 mmHg 81%
    05:00 +12°C° 0 mm 0 mps 706 mmHg 72%
    06:00 +15°C° 0 mm 0 mps 707 mmHg 63%
    07:00 +17°C° 0 mm 0 mps 707 mmHg 54%
    08:00 +21°C° 0 mm 1 mps 707 mmHg 46%
    09:00 +23°C° 0 mm 1 mps 707 mmHg 38%
    10:00 +26°C° 0 mm 1 mps 706 mmHg 30%
    11:00 +27°C° 0 mm 1 mps 706 mmHg 27%
    12:00 +27°C° 0 mm 1 mps 706 mmHg 24%
    13:00 +28°C° 0 mm 2 mps 705 mmHg 21%
    14:00 +28°C° 0 mm 2 mps 705 mmHg 21%
    15:00 +28°C° 0 mm 1 mps 704 mmHg 20%
    16:00 +28°C° 0 mm 1 mps 704 mmHg 20%
    17:00 +26°C° 0 mm 1 mps 703 mmHg 26%
    18:00 +24°C° 0 mm 1 mps 703 mmHg 31%
    19:00 +22°C° 0 mm 1 mps 702 mmHg 37%
    20:00 +18°C° 0 mm 0 mps 702 mmHg 38%
    21:00 +16°C° 0 mm 0 mps 703 mmHg 40%
    22:00 +14°C° 0 mm 0 mps 703 mmHg 42%
    23:00 +14°C° 0 mm 0 mps 702 mmHg 43%
    Show more